Voltar ao catálogo

STARLINK-1470

AtivoComunicaçõesVLEO
NORAD 45772·PAYLOAD·🇺🇸 United States

Lançado Jun 13, 2020 de Cape Canaveral Space Force Station

Loading…

Próximas Passagens (próximas 24 horas)

TLE

AtualizadoSource: CelesTrak SupGP

Época: Sep 14, 2026, 20:42 UTC

1 45772C 20038AU  26257.86298611  .00028042  00000+0  63128-3 0  2576
2 45772  53.0404   6.0297 0002548 336.1044 289.9588 15.42692432    15

Acompanhe STARLINK-1470 em tempo real com AllMySat

Download on the App Store